YN3ZBQ-13 Weather Reports


time (UTC)temp
C
wind
direction
speed
KPH
gust
KPH
rain 1hr
cm
rain 24hr
cm
rain mn
cm
humidity
%
barometer
mb
20260502214221 33 236 12.9 11.3 0.00 0.00 0.00 49 1007.0
20260502213221 33 236 12.9 11.3 0.00 0.00 0.00 49 1007.0
20260502212221 34 236 12.9 11.3 0.00 0.00 0.00 49 1007.0
20260502211221 35 236 12.9 11.3 0.00 0.00 0.00 49 1008.0
20260502210220 30 190 8.0 0.0 0.00 0.00 0.00 49 1008.0
20260502205220 31 190 8.0 0.0 0.00 0.00 0.00 49 1008.0
20260502204219 31 190 8.0 0.0 0.00 0.00 0.00 49 1008.0
20260502203219 32 190 8.0 0.0 0.00 0.00 0.00 49 1008.0
20260502202218 32 190 8.0 0.0 0.00 0.00 0.00 49 1007.0
20260502201218 33 190 8.0 0.0 0.00 0.00 0.00 49 1008.0
20260502200218 33 190 9.7 0.0 0.00 0.00 0.00 49 1008.0
20260502195217 31 190 9.7 0.0 0.00 0.00 0.00 46 1008.0
20260502194217 31 190 9.7 0.0 0.00 0.00 0.00 46 1008.0
20260502193216 32 180 6.4 0.0 0.00 0.00 0.00 46 1009.0
20260502192216 32 180 6.4 0.0 0.00 0.00 0.00 46 1009.0
20260502191216 32 180 6.4 0.0 0.00 0.00 0.00 46 1009.0
20260502190216 33 180 6.4 0.0 0.00 0.00 0.00 46 1009.0
20260502185215 33 180 6.4 0.0 0.00 0.00 0.00 46 1009.0
20260502184215 33 180 6.4 0.0 0.00 0.00 0.00 46 1009.0
20260502183215 31 180 6.4 0.0 0.00 0.00 0.00 43 1010.0
20260502182214 31 180 6.4 0.0 0.00 0.00 0.00 43 1010.0
20260502181214 31 360 6.4 0.0 0.00 0.00 0.00 43 1010.0
20260502180214 32 360 6.4 0.0 0.00 0.00 0.00 43 1010.0
20260502170212 30 10 6.4 0.0 0.00 0.00 0.00 43 1011.0
20260502164211 31 10 6.4 0.0 0.00 0.00 0.00 43 1011.0
20260502163211 32 10 6.4 0.0 0.00 0.00 0.00 43 1011.0
20260502162210 32 10 6.4 0.0 0.00 0.00 0.00 43 1011.0
20260502161210 30 187 3.2 6.4 0.00 0.00 0.00 61 1011.0
20260502160210 30 360 6.4 0.0 0.00 0.00 0.00 62 1011.0
20260502152208 29 190 0.0 1.6 0.00 0.00 0.00 73 1011.0
20260502151208 28 190 0.0 1.6 0.00 0.00 0.00 76 1011.0
20260502150208 27 0 0.0 0.0 0.00 0.00 0.00 78 1011.0
20260502130204 24 0 0.0 0.0 0.00 0.00 0.00 88 1010.0
20260502123203 24 104 1.6 1.6 0.00 0.00 0.00 74 1011.0
20260502122202 25 104 1.6 1.6 0.00 0.00 0.00 74 1010.0
20260502121202 23 104 1.6 1.6 0.00 0.00 0.00 73 1010.0
20260502120202 24 104 1.6 1.6 0.00 0.00 0.00 73 1010.0
20260502115201 23 104 1.6 1.6 0.00 0.00 0.00 74 1010.0
20260502114201 24 104 1.6 1.6 0.00 0.00 0.00 74 1010.0
20260502113201 23 37 0.0 1.6 0.03 0.00 0.00 75 1009.0
20260502112200 24 37 0.0 1.6 0.03 0.00 0.00 75 1009.0
20260502111200 25 37 0.0 1.6 0.03 0.00 0.00 75 1009.0
20260502110200 23 37 0.0 1.6 0.10 0.00 0.00 75 1009.0
20260502105159 24 37 0.0 1.6 0.10 0.00 0.00 75 1009.0
20260502104159 25 37 0.0 1.6 0.10 0.00 0.00 75 1009.0
20260502103159 23 37 0.0 1.6 0.00 0.00 0.00 75 1009.0
20260502102158 24 312 0.0 1.6 0.00 0.00 0.00 75 1009.0
20260502101158 25 312 0.0 1.6 0.00 0.00 0.00 75 1009.0
20260502100158 23 312 0.0 1.6 0.00 0.00 0.00 75 1009.0
20260502091156 25 310 1.6 1.6 0.00 0.00 0.00 75 1009.0
20260502090156 25 310 1.6 1.6 0.00 0.00 0.00 75 1009.0
20260502071153 25 276 1.6 1.6 0.00 0.00 0.00 75 1010.0
20260502070153 25 276 1.6 1.6 0.00 0.00 0.00 75 1010.0
20260502065153 25 276 1.6 1.6 0.00 0.00 0.00 75 1010.0
20260502064152 26 276 3.2 3.2 0.00 0.00 0.00 75 1010.0
20260502063152 24 270 1.6 6.4 0.00 0.00 0.00 75 1010.0
20260502062152 25 270 1.6 6.4 0.00 0.00 0.00 75 1010.0
20260502061151 25 270 1.6 6.4 0.00 0.00 0.00 75 1010.0
20260502060151 26 270 1.6 6.4 0.00 0.00 0.00 75 1010.0
20260502055151 26 270 3.2 6.4 0.00 0.00 0.00 75 1010.0
20260502054151 24 273 4.8 8.0 0.00 0.00 0.00 75 1010.0
20260502053150 25 273 4.8 8.0 0.00 0.00 0.00 75 1010.0
20260502052150 25 273 4.8 8.0 0.00 0.00 0.00 75 1010.0
20260502051150 24 273 4.8 8.0 0.00 0.00 0.00 75 1010.0
20260502050149 25 273 4.8 8.0 0.00 0.00 0.00 75 1010.0
20260502045149 25 273 4.8 8.0 0.00 0.00 0.00 75 1010.0
20260502044149 25 273 4.8 8.0 0.00 0.00 0.00 75 1010.0
20260502043149 24 276 6.4 12.9 0.00 0.00 0.00 75 1010.0
20260502042148 25 276 6.4 12.9 0.00 0.00 0.00 75 1010.0
20260502041148 25 276 6.4 12.9 0.00 0.00 0.00 75 1010.0
20260502040148 25 276 6.4 12.9 0.03 0.00 0.00 75 1010.0
20260502035148 24 279 8.0 17.7 0.03 0.00 0.00 73 1010.0
20260502034147 25 279 8.0 17.7 0.00 0.00 0.00 73 1010.0
20260502033147 25 279 8.0 17.7 0.03 0.00 0.00 73 1010.0
20260502032147 26 279 8.0 17.7 0.00 0.00 0.00 73 1010.0
20260502031146 26 279 8.0 17.7 0.00 0.00 0.00 73 1009.0
20260502030146 26 279 8.0 17.7 0.00 0.00 0.00 73 1009.0
20260502025146 27 279 8.0 17.7 0.00 0.00 0.00 73 1009.0
20260502024145 27 279 8.0 17.7 0.00 0.00 0.00 73 1009.0
20260502023145 28 279 8.0 17.7 0.00 0.00 0.00 73 1009.0
20260502022145 25 276 8.0 17.7 0.00 0.00 0.00 68 1009.0
20260502021144 25 276 8.0 17.7 0.00 0.00 0.00 68 1009.0
20260502020144 26 276 8.0 17.7 0.00 0.00 0.00 68 1009.0
20260502015143 26 276 8.0 17.7 0.00 0.00 0.00 68 1009.0
20260502014143 27 276 8.0 17.7 0.00 0.00 0.00 68 1008.0
20260502013143 27 276 8.0 17.7 0.00 0.00 0.00 68 1008.0
20260502012143 25 234 8.0 12.9 0.00 0.00 0.00 61 1008.0
20260502011142 25 234 8.0 12.9 0.00 0.00 0.00 61 1008.0
20260502010142 26 234 8.0 12.9 0.00 0.00 0.00 61 1008.0
20260502005142 26 234 8.0 12.9 0.00 0.00 0.00 61 1008.0
20260502004141 27 234 8.0 12.9 0.00 0.00 0.00 61 1008.0
20260502003141 27 234 8.0 12.9 0.00 0.00 0.00 61 1008.0
20260502002141 27 234 8.0 12.9 0.00 0.00 0.00 61 1007.0
20260502001141 27 234 8.0 12.9 0.00 0.00 0.00 61 1007.0
20260502000140 28 234 8.0 12.9 0.00 0.00 0.00 61 1007.0
20260501235140 28 234 8.0 12.9 0.00 0.00 0.00 61 1007.0
20260501234140 29 234 8.0 12.9 0.00 0.00 0.00 61 1007.0
20260501233140 30 234 9.7 12.9 0.00 0.00 0.00 61 1007.0
20260501232139 27 265 17.7 12.9 0.00 0.00 0.00 47 1006.0
20260501231139 28 265 17.7 12.9 0.00 0.00 0.00 47 1006.0
20260501230139 28 265 17.7 12.9 0.00 0.00 0.00 47 1006.0
20260501225138 29 265 17.7 12.9 0.00 0.00 0.00 47 1006.0
20260501224138 30 265 17.7 12.9 0.00 0.00 0.00 47 1006.0
20260501223138 30 265 17.7 12.9 0.00 0.00 0.00 47 1006.0
20260501222137 31 265 17.7 12.9 0.00 0.00 0.00 47 1005.0
20260501221137 31 265 17.7 12.9 0.00 0.00 0.00 47 1005.0
20260501220137 31 265 17.7 12.9 0.00 0.00 0.00 47 1005.0
20260501215136 32 265 17.7 12.9 0.00 0.00 0.00 47 1005.0